Regional Weather Roundup
Issued by NWS State College, PA

Home | Current Version | Previous Version | Graphics & Text | Print | Product List | Glossary Off
Versions: 1 2 3 4 5 6 7 8 9 10 11 12 13 14 15 16 17 18 19 20 21 22 23 24 25 26 27 28 29 30 31 32 33 34 35 36 37 38 39 40 41 42 43 44 45 46 47 48 49 50

842
ASUS41 KCTP 300910
RWRCTP

REGIONAL WEATHER ROUNDUP
NATIONAL WEATHER SERVICE STATE COLLEGE PA
500 AM EDT SAT JUL 30 2016

Note: "fair" indicates few or no clouds below 12,000 feet with no
significant weather and/or obstructions to visibility.

* = STATION THAT DOES NOT REPORT PRECIPITATION /E.G. RAIN...SNOW...ETC/
    THUNDER OR FOG.

PAZ002>004-007>009-013>016-020>023-029>032-301000-
WESTERN PENNSYLVANIA

CITY           SKY/WX    TMP DP  RH WIND       PRES   REMARKS
ERIE           LGT RAIN  73  64  73 E8        29.94S
MEADVILLE      MOCLDY    66  63  90 E6        29.96F
FRANKLIN*      MOCLDY    64  63  94 E3        29.98S
NEW CASTLE     FAIR      67  65  93 E3        29.95S
BEAVER COUNTY  NOT AVBL
BUTLER*        CLOUDY    70  63  78 CALM      29.98R
PITTSBURGH INT CLOUDY    70  64  81 CALM      29.94S
PITTSBURGH     PTCLDY    70  64  81 SE6       29.94S
INDIANA*       MOCLDY    66  64  94 CALM      30.00S
LATROBE        PTCLDY    64  64 100 CALM      29.96S FOG
WASHINGTON CO* CLOUDY    66  64  94 CALM      29.95S
$$

PAZ004>006-010>012-017>019-024>028-033>037-041-042-045-046-049>053-301000-
CENTRAL PENNSYLVANIA

CITY           SKY/WX    TMP DP  RH WIND       PRES   REMARKS
BRADFORD       CLOUDY    64  60  87 E5        30.02F
DUBOIS         CLEAR     66  62  87 E6        29.99S
CLEARFIELD     PTCLDY    63  60  90 N5        30.00S
JOHNSTOWN      CLEAR     65  61  87 CALM      30.01S FOG
ALTOONA        CLOUDY    66  66 100 CALM      30.00R FOG
STATE COLLEGE  PTCLDY    65  64  98 CALM      29.99R
WILLIAMSPORT   CLEAR     68  61  78 CALM      29.96R
SELINSGROVE    CLEAR     68  68 100 CALM      29.96R
FT INDIANTOWN  CLEAR     69  69  98 CALM      29.95S
CAPITAL CITY   PTCLDY    74  68  81 E7        29.95R
HARRISBURG     PTCLDY    73  71  93 CALM      29.94R
YORK           CLEAR     68  67  96 CALM      29.95R FOG
$$

PAZ038>040-043-044-047-048-054-055-060>062-067>071-301000-
EASTERN PENNSYLVANIA

CITY           SKY/WX    TMP DP  RH WIND       PRES   REMARKS
SCRANTON       CLOUDY    69  62  78 E5        29.98S
MOUNT POCONO   CLOUDY    64  62  93 CALM      30.03R
ALLENTOWN      LGT RAIN  73  69  87 CALM      29.95F
QUAKERTOWN*    PTSUNNY   72  72 100 CALM      29.97S
READING        CLEAR     70  67  90 CALM      29.95R
LANCASTER      CLEAR     69  67  93 E5        29.95R
COATESVILLE    FOG       70  70 100 CALM      29.98R VSB 1/2
POTTSTOWN      PTCLDY    71  70  96 CALM      29.97S
BLUE BELL      CLOUDY    72  70  94 CALM      29.95R
DOYLESTOWN     CLOUDY    69  69 100 CALM      29.96R
WILLOW GROVE   NOT AVBL
NORTH PHILA    CLOUDY    76  73  91 CALM      29.96S
PHILADELPHIA   MOCLDY    74  71  91 E3        29.95R
$$




USA.gov is the U.S. government's official web portal to all federal, state and local government web resources and services.